Home > Weather > Kristiansand > Past weeks

Flag for Norway Past Weather in Kristiansand, Norway — Yesterday and Last 2 Weeks

Now
54 °F

Passing clouds.


Feels Like: 53 °F
Forecast: 56 / 66 °F
Wind: 3 mph from Northeast

Location: Kristiansand / Kjevik

Current Time: Jul 27, 2016 at 3:22:13 AM

Latest Report: Jul 27, 2016 at 2:50 AM


Visibility: N/A

Pressure: 30.01 "Hg

Humidity: 100%

Dew Point: 54 °F

Location of KristiansandLocation

Past Weather in Kristiansand — Graph

°F

Kristiansand Temperature Yesterday

Maximum temperature yesterday: 68 °F (at 3:50 PM)
Minimum temperature yesterday: 59 °F (at 3:50 AM)
Average temperature yesterday: 62 °F

High & Low Weather Summary for the Past Weeks

 TemperatureHumidityPressure
High75 °F (Jul 19, 5:20 PM)100% (Jul 14, 2:20 AM)30.12 "Hg (Jul 14, 2:20 AM)
Low52 °F (Jul 17, 2:50 AM)40% (Jul 16, 5:50 PM)29.50 "Hg (Jul 12, 1:20 AM)
Average64 °F80%29.94 "Hg
* Reported Jul 12 1:20 AM — Jul 27 1:50 AM, Kristiansand, Weather by CustomWeather, © 2016

Note: Actual official high and low records may vary slightly from our data, if they occured in-between our weather recording intervals... More about our weather records

Advertising

Kristiansand Weather History for the Previous 24 Hours

Scroll right to see more
 ConditionsComfort  
Time TempWeatherWind HumidityBarometerVisibility
1:50 AM
Wed, Jul 27
55 °FPartly cloudy.1 mph94%30.01 "HgN/A
1:20 AM57 °FPassing clouds.2 mph94%30.01 "HgN/A
12:50 AM57 °FPassing clouds.2 mph94%30.01 "HgN/A
12:20 AM57 °FPassing clouds.3 mph88%30.01 "HgN/A
11:50 PM
Tue, Jul 26
59 °FPassing clouds.5 mph82%30.04 "HgN/A
11:20 PM59 °FPassing clouds.6 mph88%30.01 "HgN/A
10:50 PM59 °FPassing clouds.7 mph88%30.01 "HgN/A
10:20 PM61 °FPassing clouds.6 mph77%30.01 "HgN/A
9:50 PM61 °FPassing clouds.12 mph77%30.01 "HgN/A
9:20 PM63 °FPassing clouds.13 mph73%30.01 "HgN/A
8:50 PM64 °FPassing clouds.12 mph73%30.01 "HgN/A
8:20 PM64 °FScattered clouds.12 mph68%30.01 "HgN/A
7:50 PM64 °FScattered clouds.12 mph68%30.01 "HgN/A
7:20 PM66 °FPassing clouds.14 mph64%29.98 "HgN/A
6:50 PM66 °FScattered clouds.13 mph64%29.98 "HgN/A
6:20 PM68 °FScattered clouds.12 mph60%29.98 "HgN/A
5:50 PM68 °FScattered clouds.14 mph64%29.98 "HgN/A
5:20 PM68 °FScattered clouds.14 mph64%29.98 "HgN/A
4:50 PM66 °FScattered clouds.13 mph64%29.98 "HgN/A
4:20 PM68 °FScattered clouds.12 mph64%29.98 "HgN/A
3:50 PM68 °FScattered clouds.8 mph69%29.98 "HgN/A
3:20 PM66 °FScattered clouds.8 mph68%29.98 "HgN/A
2:50 PM66 °FPassing clouds.13 mph68%29.98 "HgN/A
2:20 PM64 °FPassing clouds.7 mph78%29.98 "HgN/A
1:50 PM63 °FSprinkles. Scattered clouds.12 mph68%29.98 "HgN/A
1:20 PM66 °FScattered showers. Scattered clouds.15 mph73%29.98 "HgN/A
12:50 PM66 °FScattered showers. Scattered clouds.14 mph78%29.98 "HgN/A
12:20 PM63 °FScattered showers. Scattered clouds.10 mph83%29.98 "HgN/A
11:50 AM64 °FScattered showers. Scattered clouds.12 mph78%29.98 "HgN/A
11:20 AM61 °FScattered clouds.10 mph83%29.98 "HgN/A
10:50 AM63 °FScattered showers. Broken clouds.9 mph83%29.98 "HgN/A
10:20 AM63 °FScattered showers. Scattered clouds.8 mph83%29.98 "HgN/A
9:50 AM61 °FScattered clouds.8 mph88%29.98 "HgN/A
9:20 AM59 °FScattered showers. Broken clouds.9 mph94%29.98 "HgN/A
8:50 AM61 °FScattered showers. Broken clouds.5 mph88%29.98 "HgN/A
8:20 AM61 °FScattered showers. Broken clouds.5 mph88%29.95 "HgN/A
7:50 AM61 °FLight rain. Partly sunny.6 mph83%29.95 "HgN/A
7:20 AM59 °FPartly sunny.5 mph88%29.95 "HgN/A
6:50 AM59 °FPartly sunny.5 mph88%29.95 "HgN/A
6:20 AM59 °FPartly sunny.6 mph88%29.95 "HgN/A
5:50 AM59 °FPassing clouds.6 mph88%29.95 "HgN/A
5:20 AM59 °FPassing clouds.6 mph88%29.95 "HgN/A
4:50 AM59 °FOvercast.7 mph88%29.95 "HgN/A
4:20 AM59 °FPassing clouds.7 mph88%29.95 "HgN/A
3:50 AM59 °FPassing clouds.7 mph88%29.95 "HgN/A
3:20 AM61 °FOvercast.7 mph88%29.95 "HgN/A
Weather by CustomWeather, © 2016

See weather overviewHow to use our weather pages